Change the Weather History Date:

Saturday, June 7, 2014

  Actual Average Record
Temperature  
Mean Temperature 66 °F 63 °F  
Max Temperature 84 °F 75 °F 96 °F (1999)
Min Temperature 48 °F 50 °F 33 °F (1958)
Degree Days  
Heating Degree Days 0 4  
Month to date heating degree days 20 34  
Since 1 June heating degree days 20 34  
Since 1 July heating degree days 7588 7184  
Cooling Degree Days 1 2  
Month to date cooling degree days 3 11  
Year to date cooling degree days 5 29  
Since 1 June cooling degree days 3 11  
Growing Degree Days 16 (Base 50)    
Moisture  
Dew Point 52 °F    
Average Humidity 65    
Maximum Humidity 96    
Minimum Humidity 33    
Precipitation  
Precipitation 0.00 in 0.13 in 1.58 in (1942)
Month to date precipitation 0.11 0.93  
Year to date precipitation 17.85 16.59  
Snow  
Snow 0.00 in 0.00 in 0.00 in (2002)
Month to date snowfall 0.0 0.0  
Since 1 June snowfall 0.0 0.0  
Since 1 July snowfall 80.4 61.4  
Snow Depth 0.00 in    
Sea Level Pressure  
Sea Level Pressure 29.91 in    
Wind  
Wind Speed 6 mph (NNW)    
Max Wind Speed 16 mph    
Max Gust Speed 25 mph    
Visibility 10 miles    
Events      
T = Trace of Precipitation, MM = Missing Value Source: NWS Daily Summary

Daily Weather History Graph

Daily Weather History Graph

Search for Another Location

Airport or City:

Trip Planner

Search our weather history database for the weather conditions in past years. The results will help you decide how hot, cold, wet, or windy it might be!

Date:

Astronomy

Jun. 07, 2014 Rise Set
Actual Time 5:06 AM EDT 8:23 PM EDT
Civil Twilight 4:31 AM EDT 8:58 PM EDT
Nautical Twilight 3:46 AM EDT 9:44 PM EDT
Astronomical Twilight 2:50 AM EDT 10:40 PM EDT
Moon 2:29 PM EDT (6/7) 1:36 AM EDT (6/7)
Length of Visible Light 16h 27m
Length of Day
15h 16m
Waxing Gibbous, 67% of the Moon is Illuminated
Jun 7
Waxing Gibbous
Jun 13
Full
Jun 19
Last Quarter
Jun 27
New
Jul 5
First Quarter

Hourly Weather History & Observations

Time (EDT) Temp. Heat Index Dew Point Humidity Pressure Visibility Wind Dir Wind Speed Gust Speed Precip Events Conditions
12:51 AM 53.1 °F - 51.1 °F 93% 29.89 in 10.0 mi Calm Calm - N/A   Clear
1:51 AM 55.9 °F - 51.1 °F 84% 29.90 in 10.0 mi Calm Calm - N/A   Clear
2:51 AM 51.1 °F - 50.0 °F 96% 29.91 in 10.0 mi East 4.6 mph - N/A   Mostly Cloudy
3:51 AM 50.0 °F - 48.9 °F 96% 29.91 in 10.0 mi East 3.5 mph - N/A   Clear
4:51 AM 50.0 °F - 48.0 °F 93% 29.91 in 10.0 mi NE 3.5 mph - N/A   Clear
5:51 AM 50.0 °F - 48.9 °F 96% 29.92 in 10.0 mi ENE 3.5 mph - N/A   Clear
6:51 AM 61.0 °F - 53.1 °F 75% 29.92 in 10.0 mi NW 5.8 mph - N/A   Clear
8:51 AM 69.8 °F - 53.6 °F 56% 29.94 in 10.0 mi WNW 11.5 mph - N/A   Clear
9:51 AM 73.4 °F - 53.6 °F 50% 29.94 in 10.0 mi NW 11.5 mph - N/A   Clear
10:51 AM 75.9 °F - 54.0 °F 46% 29.94 in 10.0 mi NNW 10.4 mph - N/A   Clear
11:51 AM 78.1 °F - 54.0 °F 43% 29.93 in 10.0 mi West 10.4 mph - N/A   Clear
12:51 PM 81.0 °F 80.4 °F 53.1 °F 38% 29.92 in 10.0 mi NNW 11.5 mph - N/A   Partly Cloudy
1:51 PM 82.9 °F 81.8 °F 53.1 °F 36% 29.91 in 10.0 mi NNW 11.5 mph 16.1 mph N/A   Partly Cloudy
2:51 PM 80.1 °F - 51.1 °F 36% 29.91 in 10.0 mi WNW 10.4 mph - N/A   Clear
3:51 PM 81.0 °F - 51.1 °F 35% 29.89 in 10.0 mi NNW 8.1 mph - N/A   Clear
4:51 PM 82.9 °F - 50.0 °F 32% 29.88 in 10.0 mi NW 9.2 mph - N/A   Clear
5:51 PM 82.4 °F - 50.0 °F 32% 29.87 in 10.0 mi NNW 11.5 mph - N/A   Partly Cloudy
6:51 PM 81.0 °F - 51.1 °F 35% 29.87 in 10.0 mi NW 9.2 mph - N/A   Clear
7:51 PM 77.0 °F - 51.1 °F 40% 29.88 in 10.0 mi NNW 5.8 mph - N/A   Clear
8:51 PM 72.0 °F - 53.1 °F 51% 29.89 in 10.0 mi NW 3.5 mph - N/A   Clear
9:51 PM 64.9 °F - 55.0 °F 70% 29.91 in 10.0 mi Calm Calm - N/A   Clear
10:51 PM 61.0 °F - 55.0 °F 81% 29.93 in 10.0 mi Calm Calm - N/A   Clear
11:51 PM 59.0 °F - 55.0 °F 87% 29.94 in 10.0 mi Calm Calm - N/A   Clear